Pendleton, OR

1:43 AM PDT on May 27, 2017 (GMT -0700)
Eastern Oreg Regional At Pendleton

Weather History for KPDT - November, 2011

Change the Weather History Date:

Wednesday, November 9, 2011

  Actual Average Record
Temperature  
Mean Temperature 47 °F 44 °F  
Max Temperature 60 °F 52 °F 72 °F (1989)
Min Temperature 34 °F 35 °F 19 °F (1936)
Degree Days  
Heating Degree Days 18 21  
Month to date heating degree days 216 180  
Since 1 July heating degree days 704 722  
Cooling Degree Days 0 0  
Month to date cooling degree days 0 0  
Year to date cooling degree days 462 636  
Moisture  
Dew Point 26 °F    
Average Humidity 48    
Maximum Humidity 70    
Minimum Humidity 26    
Precipitation  
Precipitation 0.00 in 0.05 in 0.52 in (1924)
Month to date precipitation 0.04 0.44  
Year to date precipitation 10.81 10.11  
Snow  
Snow 0.00 in 0.00 in 1.20 in (1986)
Month to date snowfall 0.0 0.1  
Year to date snowfall 5.3 7.9  
Since 1 July snowfall 0.0 0.2  
Snow Depth 0.00 in    
Sea Level Pressure  
Sea Level Pressure 30.30 in    
Wind  
Wind Speed 5 mph (SE)    
Max Wind Speed 15 mph    
Max Gust Speed 18 mph    
Visibility 10 miles    
Events      
T = Trace of Precipitation, MM = Missing Value Source: NWS Daily Summary

Daily Weather History Graph

Daily Weather History Graph

Search for Another Location

Airport or City:

Trip Planner

Search our weather history database for the weather conditions in past years. The results will help you decide how hot, cold, wet, or windy it might be!

Date:

Astronomy

Nov. 09, 2011 Rise Set
Actual Time 6:46 AM PST 4:31 PM PST
Civil Twilight 6:14 AM PST 5:03 PM PST
Nautical Twilight 5:38 AM PST 5:38 PM PST
Astronomical Twilight 5:04 AM PST 6:13 PM PST
Moon 3:45 PM PST (11/9) 5:46 AM PST (11/9)
Length of Visible Light 10h 48m
Length of Day
9h 45m
Waxing Gibbous, 99% of the Moon is Illuminated
Nov 9
Waxing Gibbous
Nov 10
Full
Nov 18
Last Quarter
Nov 24
New
Dec 2
First Quarter

Hourly Weather History & Observations

Time (PST) Temp. Windchill Dew Point Humidity Pressure Visibility Wind Dir Wind Speed Gust Speed Precip Events Conditions
12:53 AM 42.1 °F 38.4 °F 28.0 °F 58% 30.32 in 10.0 mi ESE 5.8 mph - N/A   Overcast
1:53 AM 42.1 °F 37.7 °F 28.9 °F 60% 30.32 in 10.0 mi East 6.9 mph - N/A   Overcast
2:53 AM 41.0 °F - 28.0 °F 60% 30.32 in 10.0 mi Calm Calm - N/A   Overcast
3:53 AM 42.1 °F 38.4 °F 26.1 °F 53% 30.32 in 10.0 mi SE 5.8 mph - N/A   Scattered Clouds
4:53 AM 39.9 °F 36.7 °F 26.1 °F 58% 30.34 in 10.0 mi SSE 4.6 mph - N/A   Clear
5:53 AM 43.0 °F 38.2 °F 26.1 °F 51% 30.35 in 10.0 mi SE 8.1 mph - N/A   Clear
6:53 AM 42.1 °F 36.6 °F 26.1 °F 53% 30.36 in 10.0 mi SE 9.2 mph - N/A   Clear
7:53 AM 43.0 °F 39.5 °F 27.0 °F 53% 30.37 in 10.0 mi SSE 5.8 mph - N/A   Clear
8:53 AM 46.9 °F - 27.0 °F 46% 30.37 in 10.0 mi Calm Calm - N/A   Clear
9:53 AM 51.1 °F - 27.0 °F 39% 30.36 in 10.0 mi Calm Calm - N/A   Clear
10:53 AM 55.9 °F - 26.1 °F 32% 30.35 in 10.0 mi ESE 8.1 mph - N/A   Clear
11:53 AM 59.0 °F - 25.0 °F 27% 30.32 in 10.0 mi South 9.2 mph - N/A   Clear
12:53 PM 59.0 °F - 25.0 °F 27% 30.29 in 10.0 mi SE 8.1 mph - N/A   Clear
1:53 PM 59.0 °F - 25.0 °F 27% 30.27 in 10.0 mi SE 6.9 mph - N/A   Clear
2:53 PM 57.0 °F - 26.1 °F 30% 30.26 in 10.0 mi SE 9.2 mph - N/A   Clear
3:53 PM 50.0 °F - 30.9 °F 48% 30.25 in 10.0 mi NW 3.5 mph - N/A   Clear
4:53 PM 44.1 °F 41.5 °F 30.9 °F 60% 30.25 in 10.0 mi North 4.6 mph - N/A   Clear
5:53 PM 37.9 °F 35.5 °F 28.0 °F 68% 30.25 in 10.0 mi North 3.5 mph - N/A   Clear
6:53 PM 37.0 °F 34.5 °F 26.1 °F 65% 30.25 in 10.0 mi NW 3.5 mph - N/A   Clear
7:53 PM 37.0 °F - 27.0 °F 67% 30.25 in 10.0 mi Calm Calm - N/A   Clear
8:53 PM 37.9 °F 35.5 °F 25.0 °F 60% 30.25 in 10.0 mi North 3.5 mph - N/A   Clear
9:53 PM 36.0 °F - 21.9 °F 57% 30.25 in 10.0 mi Calm Calm - N/A   Clear
10:53 PM 42.1 °F 40.2 °F 24.1 °F 49% 30.23 in 10.0 mi South 3.5 mph - N/A   Clear
11:53 PM 39.0 °F 34.8 °F 24.1 °F 55% 30.22 in 10.0 mi SSE 5.8 mph - N/A   Clear